Resolute CS, Nunavut

6:22 AM MDT on July 23, 2017 (GMT -0600)
Resolute CS

Weather History for CXRB - October, 2013

Change the Weather History Date:

Tuesday, October 8, 2013

  Actual Average (CYRB) Record (CYRB)
Temperature  
Mean Temperature 6 °F -  
Max Temperature 9 °F 14 °F 30 °F (2007)
Min Temperature 3 °F 6 °F -9 °F (1996)
Degree Days  
Heating Degree Days 59    
Moisture  
Dew Point 1 °F    
Average Humidity 78    
Maximum Humidity 91    
Minimum Humidity 53    
Precipitation  
Precipitation 0.02 in - - ()
Sea Level Pressure  
Sea Level Pressure 30.25 in    
Wind  
Wind Speed 3 mph ()    
Max Wind Speed 7 mph    
Max Gust Speed -    
Averages and records for this station are not official NWS values.
T = Trace of Precipitation, MM = Missing Value Source: Averaged Metar Reports

Daily Weather History Graph

Daily Weather History Graph

Search for Another Location

Airport or City:

Trip Planner

Search our weather history database for the weather conditions in past years. The results will help you decide how hot, cold, wet, or windy it might be!

Date:

Astronomy

Oct. 08, 2013 Rise Set
Actual Time 7:25 AM MDT 4:46 PM MDT
Civil Twilight 6:04 AM MDT 6:06 PM MDT
Nautical Twilight 4:31 AM MDT 7:39 PM MDT
Astronomical Twilight 2:37 AM MDT 9:30 PM MDT
Moon No Moon Rise No Moon Set
Length of Visible Light 12h 01m
Length of Day
9h 21m
Waxing Crescent, 16% of the Moon is Illuminated
Oct 8
Waxing Crescent
Oct 11
First Quarter
Oct 18
Full
Oct 26
Last Quarter
Nov 3
New

Hourly Weather History & Observations

Time (MDT) Temp. Windchill Dew Point Humidity Pressure Visibility Wind Dir Wind Speed Gust Speed Precip Events Conditions
12:00 AM 5 °F - 2 °F 84% 30.23 in - WNW 3.5 mph - -  
12:00 AM 5.4 °F -1.7 °F 2.5 °F 88% 30.23 in - WNW 3.5 mph - N/A   Unknown
1:00 AM 6.8 °F -0.1 °F 1.9 °F 80% 30.24 in - NNW 3.5 mph - N/A   Unknown
2:00 AM 7.2 °F -1.5 °F 1.0 °F 76% 30.25 in - NNW 4.6 mph - N/A   Unknown
3:00 AM 5.7 °F - 0.5 °F 79% 30.25 in - SSE 1.2 mph - N/A   Unknown
4:00 AM 5.2 °F - 0.3 °F 80% 30.25 in - South 1.2 mph - N/A   Unknown
5:00 AM 6.8 °F - 1.2 °F 78% 30.26 in - SE 2.3 mph - N/A   Unknown
6:00 AM 5 °F - 1 °F 76% 30.27 in - SE 2.3 mph - -  
6:00 AM 5.4 °F - 1.0 °F 82% 30.27 in - SE 2.3 mph - N/A   Unknown
7:00 AM 6.1 °F -0.9 °F 2.8 °F 87% 30.28 in - SE 3.5 mph - N/A   Unknown
8:00 AM 7.5 °F -3.9 °F 3.6 °F 84% 30.27 in - ESE 6.9 mph - 0.01 in   Unknown
9:00 AM 7.3 °F -1.3 °F 3.0 °F 82% 30.27 in - ESE 4.6 mph - 0.01 in   Unknown
10:00 AM 7.9 °F 1.2 °F 3.6 °F 83% 30.27 in - East 3.5 mph - N/A   Unknown
11:00 AM 8.4 °F 1.8 °F -1.1 °F 65% 30.27 in - South 3.5 mph - N/A   Unknown
12:00 PM 6 °F - -3 °F 53% 30.27 in - East 2.3 mph - -  
12:00 PM 5.5 °F - -2.9 °F 68% 30.27 in - East 2.3 mph - N/A   Unknown
1:00 PM 8.1 °F - -0.6 °F 68% 30.27 in - Calm Calm - N/A   Unknown
2:00 PM 9.0 °F - -0.2 °F 66% 30.27 in - NNE 1.2 mph - N/A   Unknown
3:00 PM 8.4 °F - -0.0 °F 68% 30.26 in - NNE 2.3 mph - N/A   Unknown
4:00 PM 8.8 °F - 1.8 °F 73% 30.26 in - SE 2.3 mph - N/A   Unknown
5:00 PM 4.1 °F -3.2 °F -1.7 °F 77% 30.25 in - ESE 3.5 mph - N/A   Unknown
6:00 PM 6 °F - 2 °F 75% 30.24 in - East 3.5 mph - -  
6:00 PM 6.1 °F -0.9 °F 1.9 °F 83% 30.24 in - East 3.5 mph - N/A   Unknown
7:00 PM 5.4 °F - 0.9 °F 82% 30.23 in - East 2.3 mph - N/A   Unknown
8:00 PM 6.6 °F - 3.7 °F 88% 30.22 in - ESE 2.3 mph - N/A   Unknown
9:00 PM 7.3 °F - 5.0 °F 90% 30.20 in - Calm Calm - N/A   Unknown
10:00 PM 6.4 °F - 4.3 °F 91% 30.19 in - SSE 1.2 mph - N/A   Unknown
11:00 PM 6.4 °F -0.5 °F 3.7 °F 89% 30.18 in - North 3.5 mph - N/A   Unknown